DW2893 Weather Reports


time (UTC)temp
C
wind
direction
speed
KPH
gust
KPH
rain 1hr
cm
rain 24hr
cm
rain mn
cm
humidity
%
barometer
mb
20260506002308 23 9 9.7 22.5 0.00 0.00 0.00 67 1003.0
20260506001308 24 340 11.3 20.9 0.00 0.00 0.00 67 1003.0
20260506000808 25 336 9.7 24.1 0.00 0.00 0.00 67 1003.0
20260505235808 25 330 14.5 29.0 0.00 0.00 0.00 65 1003.0
20260505233808 26 329 14.5 24.1 0.00 0.00 0.00 64 1003.0
20260505231808 28 346 14.5 29.0 0.00 0.00 0.00 60 1002.7
20260505225808 29 347 9.7 16.1 0.00 0.00 0.00 53 1002.2
20260505224808 30 339 14.5 25.7 0.00 0.00 0.00 50 1002.2
20260505224308 30 331 14.5 24.1 0.00 0.00 0.00 49 1002.2
20260505223308 31 328 12.9 22.5 0.00 0.00 0.00 47 1001.8
20260505222808 32 284 9.7 19.3 0.00 0.00 0.00 50 1001.7
20260505221808 32 308 8.0 20.9 0.00 0.00 0.00 51 1001.5
20260505221308 32 243 4.8 11.3 0.00 0.00 0.00 52 1001.5
20260505220308 32 238 3.2 19.3 0.00 0.00 0.00 51 1001.8
20260505215308 32 189 8.0 14.5 0.00 0.00 0.00 53 1001.8
20260505214807 32 220 4.8 19.3 0.00 0.00 0.00 55 1001.8
20260505214307 31 204 4.8 19.3 0.00 0.00 0.00 55 1001.8
20260505213808 32 285 9.7 19.3 0.00 0.00 0.00 54 1001.8
20260505210307 31 222 9.7 19.3 0.00 0.00 0.00 56 1002.2
20260505203307 32 220 9.7 19.3 0.00 0.00 0.00 55 1002.7
20260505201808 31 190 11.3 24.1 0.00 0.00 0.00 59 1002.7
20260505200307 31 219 9.7 19.3 0.00 0.00 0.00 58 1002.6
20260505195307 31 191 9.7 19.3 0.00 0.00 0.00 60 1002.8
20260505193807 30 201 11.3 29.0 0.00 0.00 0.00 61 1002.8
20260505191307 30 188 19.3 32.2 0.00 0.00 0.00 62 1002.8
20260505183807 28 203 16.1 33.8 0.00 0.00 0.00 65 1003.0
20260505183307 28 190 20.9 33.8 0.00 0.00 0.00 65 1003.0
20260505182308 28 176 14.5 32.2 0.00 0.00 0.00 66 1003.0
20260505175807 28 218 16.1 37.0 0.00 0.00 0.00 69 1003.0
20260505175307 28 217 11.3 24.1 0.00 0.00 0.00 69 1003.0
20260505173807 27 194 14.5 29.0 0.00 0.00 0.00 70 1003.2
20260505173307 27 192 16.1 33.8 0.00 0.00 0.00 71 1003.2
20260505172807 27 198 19.3 32.2 0.00 0.00 0.00 71 1003.2
20260505170807 26 184 11.3 32.2 0.00 0.00 0.00 74 1003.3
20260505170307 26 183 20.9 40.2 0.00 0.00 0.00 73 1003.3
20260505165807 26 183 19.3 32.2 0.00 0.00 0.00 73 1003.2
20260505165307 26 183 16.1 33.8 0.00 0.00 0.00 74 1003.2
20260505164307 26 174 16.1 37.0 0.00 0.00 0.00 75 1003.2
20260505163806 26 195 19.3 41.8 0.00 0.00 0.00 75 1003.2
20260505163307 26 173 20.9 45.1 0.00 0.00 0.00 75 1003.2
20260505162806 25 202 19.3 40.2 0.00 0.00 0.00 75 1003.1
20260505162307 25 193 20.9 41.8 0.00 0.00 0.00 75 1003.1
20260505161807 25 183 19.3 41.8 0.00 0.00 0.00 75 1003.1
20260505161307 25 179 19.3 38.6 0.00 0.00 0.00 75 1002.8
20260505160307 25 193 20.9 38.6 0.00 0.00 0.00 76 1002.8
20260505151806 23 187 17.7 41.8 0.00 0.00 0.00 80 1002.8
20260505151306 23 183 19.3 40.2 0.00 0.00 0.00 80 1002.8
20260505150306 23 175 22.5 40.2 0.00 0.00 0.00 79 1002.8
20260505130306 22 180 16.1 29.0 0.00 0.00 0.00 85 1002.4
20260505124806 22 189 22.5 40.2 0.00 0.00 0.00 85 1002.4
20260505124305 21 184 20.9 40.2 0.00 0.00 0.00 85 1002.1
20260505123806 21 209 12.9 32.2 0.00 0.00 0.00 85 1002.1
20260505122306 21 203 17.7 32.2 0.00 0.00 0.00 85 1002.0
20260505120806 22 195 22.5 40.2 0.00 0.00 0.00 84 1001.9
20260505115806 22 200 22.5 41.8 0.00 0.00 0.00 84 1001.8
20260505113806 22 203 20.9 46.7 0.00 0.00 0.00 84 1001.6
20260505111305 22 182 19.3 41.8 0.00 0.00 0.00 84 1001.5
20260505100805 21 181 17.7 32.2 0.00 0.00 0.00 84 1001.8
20260505100305 21 202 20.9 40.2 0.00 0.00 0.00 84 1001.6
20260505095805 21 175 20.9 35.4 0.00 0.00 0.00 84 1001.8
20260505095305 21 191 20.9 38.6 0.00 0.00 0.00 84 1001.8
20260505094806 21 199 19.3 32.2 0.00 0.00 0.00 84 1001.8
20260505094305 21 187 17.7 33.8 0.00 0.00 0.00 84 1002.0
20260505090805 21 192 20.9 40.2 0.00 0.00 0.00 85 1002.2
20260505090305 21 191 19.3 38.6 0.00 0.00 0.00 85 1002.2
20260505085806 21 198 17.7 32.2 0.00 0.00 0.00 84 1002.2
20260505084805 21 174 19.3 38.6 0.00 0.00 0.00 84 1002.1
20260505083805 21 172 14.5 32.2 0.00 0.00 0.00 84 1002.2
20260505083306 21 183 20.9 35.4 0.00 0.00 0.00 84 1002.2
20260505082305 21 184 14.5 27.4 0.00 0.00 0.00 83 1002.4
20260505081305 21 193 19.3 33.8 0.00 0.00 0.00 83 1002.4
20260505080805 21 171 16.1 27.4 0.00 0.00 0.00 83 1002.4
20260505080305 21 174 19.3 32.2 0.00 0.00 0.00 83 1002.6
20260505075805 22 202 16.1 35.4 0.00 0.00 0.00 82 1002.6
20260505075305 22 192 16.1 35.4 0.00 0.00 0.00 82 1002.6
20260505073805 22 185 22.5 38.6 0.00 0.00 0.00 81 1002.7
20260505073305 22 195 22.5 37.0 0.00 0.00 0.00 81 1002.7
20260505070806 22 183 20.9 45.1 0.00 0.00 0.00 80 1003.2
20260505065805 22 195 20.9 37.0 0.00 0.00 0.00 79 1003.3
20260505065305 22 190 16.1 35.4 0.00 0.00 0.00 79 1003.3
20260505064305 22 181 22.5 38.6 0.00 0.00 0.00 78 1003.5
20260505063305 22 176 17.7 37.0 0.00 0.00 0.00 78 1003.5
20260505062805 22 194 19.3 35.4 0.00 0.00 0.00 78 1003.5
20260505055305 22 174 16.1 38.6 0.00 0.00 0.00 77 1003.9
20260505053805 22 190 16.1 29.0 0.00 0.00 0.00 76 1003.9
20260505053305 22 172 14.5 27.4 0.00 0.00 0.00 76 1003.9
20260505052304 22 192 16.1 25.7 0.00 0.00 0.00 76 1004.0
20260505050932 22 180 14.5 32.2 0.00 0.00 0.00 75 1004.1
20260505041304 23 173 20.9 41.8 0.00 0.00 0.00 73 1004.3
20260505035304 23 186 20.9 33.8 0.00 0.00 0.00 72 1004.2
20260505033804 23 178 20.9 40.2 0.00 0.00 0.00 72 1004.2
20260505032805 23 170 16.1 32.2 0.00 0.00 0.00 72 1004.4
20260505032305 23 167 16.1 32.2 0.00 0.00 0.00 72 1004.4
20260505031805 23 172 14.5 25.7 0.00 0.00 0.00 71 1004.4
20260505031305 23 169 20.9 38.6 0.00 0.00 0.00 71 1004.4
20260505030304 23 167 19.3 32.2 0.00 0.00 0.00 71 1004.3
20260505025305 23 176 19.3 32.2 0.00 0.00 0.00 71 1004.4
20260505021804 23 172 17.7 33.8 0.00 0.00 0.00 70 1004.3
20260505021304 23 168 12.9 27.4 0.00 0.00 0.00 70 1004.1
20260505020304 23 169 16.1 32.2 0.00 0.00 0.00 69 1004.0
20260505015804 24 173 17.7 29.0 0.00 0.00 0.00 68 1004.0
20260505015304 24 170 12.9 27.4 0.00 0.00 0.00 68 1004.1
20260505012808 24 186 17.7 40.2 0.00 0.00 0.00 66 1004.0
20260505012308 24 180 16.1 29.0 0.00 0.00 0.00 66 1004.0
20260505011308 25 185 19.3 33.8 0.00 0.00 0.00 66 1004.0
20260505010309 25 184 20.9 33.8 0.00 0.00 0.00 66 1004.0
20260505005808 25 170 14.5 22.5 0.00 0.00 0.00 65 1004.0